Weather History for Altus AFB, OK

Change the Weather History Date:

Tuesday, October 1, 2013

  Actual Average Record
Temperature  
Mean Temperature 74 °F -  
Max Temperature 90 °F 79 °F 96 °F (2014)
Min Temperature 58 °F 56 °F 44 °F (2001)
Cooling Degree Days 9    
Growing Degree Days 24 (Base 50)    
Moisture  
Dew Point 58 °F    
Average Humidity 61    
Maximum Humidity 92    
Minimum Humidity 34    
Precipitation  
Precipitation 0.00 in - - ()
Sea Level Pressure  
Sea Level Pressure 29.82 in    
Wind  
Wind Speed 11 mph (SE)    
Max Wind Speed 21 mph    
Max Gust Speed 28 mph    
Visibility 10 miles    
Events      
Averages and records for this station are not official NWS values.
T = Trace of Precipitation, MM = Missing Value Source: NWS Daily Summary

Daily Weather History Graph

Daily Weather History Graph

Search for Another Location

Airport:

Trip Planner

Search our weather history database for the weather conditions in past years. The results will help you decide how hot, cold, wet, or windy it might be!

Date:

Astronomy

Oct. 01, 2013 Rise Set
Actual Time 7:31 AM CDT 7:20 PM CDT
Civil Twilight 7:06 AM CDT 7:45 PM CDT
Nautical Twilight 6:37 AM CDT 8:15 PM CDT
Astronomical Twilight 6:08 AM CDT 8:44 PM CDT
Moon 4:14 AM CDT (10/1) 5:19 PM CDT (10/1)
Length of Visible Light 12h 39m
Length of Day
11h 48m
Waning Crescent, 12% of the Moon is Illuminated
Oct 1
Waning Crescent
Oct 4
New
Oct 11
First Quarter
Oct 18
Full
Oct 26
Last Quarter

Hourly Weather History & Observations

Time (CDT) Temp. Heat Index Dew Point Humidity Pressure Visibility Wind Dir Wind Speed Gust Speed Precip Events Conditions
12:58 AM 64.4 °F - 54.0 °F 69% 29.80 in 10.0 mi ESE 8.1 mph - N/A   Clear
1:58 AM 63.0 °F - 54.0 °F 72% 29.80 in 10.0 mi SE 6.9 mph - N/A   Clear
2:59 AM 61.3 °F - 53.8 °F 76% 29.80 in 10.0 mi ESE 6.9 mph - N/A   Clear
3:58 AM 60.8 °F - 53.8 °F 78% 29.78 in 10.0 mi ESE 9.2 mph - N/A   Clear
4:56 AM 60.8 °F - 53.6 °F 77% 29.81 in 10.0 mi ESE 6.9 mph - N/A   Clear
5:58 AM 59.0 °F - 54.9 °F 86% 29.78 in 10.0 mi ESE 8.1 mph - N/A   Clear
6:58 AM 58.8 °F - 55.8 °F 90% 29.80 in 10.0 mi ESE 8.1 mph - N/A   Clear
7:58 AM 59.0 °F - 56.7 °F 92% 29.83 in 10.0 mi ESE 6.9 mph - N/A   Clear
8:58 AM 64.2 °F - 57.7 °F 79% 29.84 in 10.0 mi ESE 12.7 mph - N/A   Clear
9:58 AM 70.5 °F - 58.6 °F 66% 29.85 in 10.0 mi SE 12.7 mph - N/A   Clear
10:58 AM 75.6 °F - 60.4 °F 59% 29.86 in 10.0 mi SE 13.8 mph - N/A   Clear
11:58 AM 79.5 °F - 61.9 °F 55% 29.85 in 10.0 mi SE 13.8 mph 21.9 mph N/A   Clear
12:58 PM 83.5 °F 84.5 °F 63.1 °F 50% 29.83 in 10.0 mi SE 18.4 mph 26.5 mph N/A   Clear
1:58 PM 86.7 °F 87.8 °F 63.5 °F 46% 29.82 in 10.0 mi SSE 18.4 mph 26.5 mph N/A   Clear
2:58 PM 88.5 °F 89.2 °F 62.8 °F 42% 29.80 in 10.0 mi SSE 19.6 mph 25.3 mph N/A   Clear
3:58 PM 90.3 °F 90.2 °F 60.6 °F 37% 29.79 in 10.0 mi SE 20.7 mph 26.5 mph N/A   Clear
4:58 PM 90.5 °F 89.5 °F 58.5 °F 34% 29.78 in 10.0 mi SE 19.6 mph 27.6 mph N/A   Clear
5:58 PM 89.1 °F 87.7 °F 57.2 °F 34% 29.79 in 10.0 mi SSE 18.4 mph 27.6 mph N/A   Clear
6:58 PM 86.0 °F 85.0 °F 57.7 °F 38% 29.81 in 10.0 mi SE 12.7 mph - N/A   Clear
7:58 PM 79.3 °F - 59.0 °F 50% 29.82 in 10.0 mi SE 10.4 mph - N/A   Clear
8:58 PM 78.4 °F - 60.8 °F 55% 29.84 in 10.0 mi SE 12.7 mph - N/A   Clear
9:58 PM 76.3 °F - 60.3 °F 57% 29.85 in 10.0 mi SE 12.7 mph - N/A   Clear
10:58 PM 73.4 °F - 59.4 °F 61% 29.87 in 10.0 mi SE 12.7 mph - N/A   Clear
11:58 PM 72.0 °F - 59.4 °F 64% 29.87 in 10.0 mi SE 11.5 mph - N/A   Clear